Weather History for Gulkana, AK

Change the Weather History Date:

Monday, August 18, 2014

  Actual Average Record
Temperature  
Mean Temperature 55 °F -  
Max Temperature 64 °F 63 °F 81 °F (2004)
Min Temperature 45 °F 42 °F 30 °F (2012)
Degree Days  
Heating Degree Days 10    
Growing Degree Days 5 (Base 50)    
Moisture  
Dew Point 48 °F    
Average Humidity 89    
Maximum Humidity 100    
Minimum Humidity 47    
Precipitation  
Precipitation 0.00 in - - ()
Sea Level Pressure  
Sea Level Pressure 29.88 in    
Wind  
Wind Speed 6 mph (South)    
Max Wind Speed 10 mph    
Max Gust Speed -    
Visibility 10 miles    
Events Rain    
Averages and records for this station are not official NWS values.
T = Trace of Precipitation, MM = Missing Value Source: NWS Daily Summary

Daily Weather History Graph

Daily Weather History Graph

Search for Another Location

Airport:

Trip Planner

Search our weather history database for the weather conditions in past years. The results will help you decide how hot, cold, wet, or windy it might be!

Date:

Astronomy

Aug. 18, 2014 Rise Set
Actual Time 5:53 AM AKDT 9:35 PM AKDT
Civil Twilight 4:58 AM AKDT 10:30 PM AKDT
Nautical Twilight 3:31 AM AKDT 11:54 PM AKDT
Astronomical Twilight Sun does not rise Sun does not rise
Moon No Moon Rise 5:20 PM AKDT (8/18)
Length of Visible Light 17h 32m
Length of Day
15h 41m
Last Quarter, 37% of the Moon is Illuminated
Aug 18
Last Quarter
Aug 25
New
Sep 2
First Quarter
Sep 8
Full
Sep 15
Last Quarter

Hourly Weather History & Observations

Time (AKDT) Temp. Dew Point Humidity Pressure Visibility Wind Dir Wind Speed Gust Speed Precip Events Conditions
12:07 AM 48.9 °F 48.9 °F 100% 29.74 in 3.0 mi South 5.8 mph - 0.00 in Rain Light Rain
12:24 AM 48.9 °F 48.9 °F 100% 29.75 in 10.0 mi SSW 4.6 mph - 0.00 in Rain Light Rain
12:53 AM 48.9 °F 48.0 °F 97% 29.79 in 10.0 mi SSW 4.6 mph - 0.00 in Rain Light Rain
1:12 AM 48.9 °F 48.0 °F 97% 29.77 in 10.0 mi South 4.6 mph - 0.00 in Rain Light Rain
1:28 AM 48.9 °F 48.0 °F 97% 29.77 in 10.0 mi SSE 8.1 mph - 0.00 in Rain Light Rain
2:53 AM 48.9 °F 48.0 °F 97% 29.82 in 10.0 mi South 6.9 mph - 0.00 in   Overcast
3:53 AM 48.9 °F 48.0 °F 97% 29.83 in 9.0 mi South 6.9 mph - 0.02 in Rain Light Rain
4:39 AM 48.9 °F 48.0 °F 97% 29.82 in 10.0 mi South 8.1 mph - 0.01 in Rain Light Rain
4:53 AM 48.9 °F 48.0 °F 97% 29.84 in 10.0 mi South 6.9 mph - 0.01 in Rain Light Rain
5:17 AM 48.9 °F 46.9 °F 93% 29.83 in 10.0 mi South 5.8 mph - 0.00 in Rain Light Rain
5:44 AM 48.9 °F 48.0 °F 97% 29.83 in 10.0 mi South 5.8 mph - 0.00 in   Overcast
5:53 AM 48.9 °F 48.0 °F 97% 29.86 in 10.0 mi SSW 4.6 mph - 0.00 in   Overcast
6:38 AM 48.9 °F 48.0 °F 97% 29.85 in 10.0 mi South 4.6 mph - 0.00 in   Overcast
6:53 AM 48.9 °F 48.0 °F 97% 29.88 in 10.0 mi South 4.6 mph - 0.00 in   Overcast
7:53 AM 48.9 °F 48.0 °F 97% 29.89 in 10.0 mi South 4.6 mph - N/A   Overcast
8:30 AM 48.9 °F 48.0 °F 97% 29.88 in 10.0 mi South 6.9 mph - 0.01 in Rain Light Rain
9:02 AM 50.0 °F 48.0 °F 93% 29.88 in 10.0 mi South 6.9 mph - 0.00 in Rain Light Rain
10:31 AM 52.0 °F 48.9 °F 89% 29.90 in 10.0 mi SSE 10.4 mph - N/A   Overcast
10:53 AM 53.1 °F 50.0 °F 89% 29.92 in 10.0 mi South 9.2 mph - N/A   Overcast
11:53 AM 55.0 °F 50.0 °F 83% 29.93 in 10.0 mi South 10.4 mph - N/A   Overcast
1:27 PM 57.0 °F 48.9 °F 74% 29.91 in 10.0 mi SSE 8.1 mph - N/A   Scattered Clouds
2:53 PM 61.0 °F 48.9 °F 64% 29.93 in 10.0 mi South 8.1 mph - N/A   Clear
3:53 PM 62.1 °F 46.9 °F 58% 29.93 in 10.0 mi SSW 8.1 mph - N/A   Partly Cloudy
6:53 PM 59.0 °F 51.1 °F 75% 29.95 in 10.0 mi ESE 3.5 mph - 0.00 in   Mostly Cloudy
8:53 PM 57.0 °F 48.0 °F 72% 29.96 in 10.0 mi SSW 3.5 mph - N/A   Scattered Clouds
9:53 PM 50.0 °F 46.9 °F 89% 29.98 in 10.0 mi SW 3.5 mph - N/A   Clear
10:53 PM 46.0 °F 44.1 °F 93% 29.99 in 10.0 mi Calm Calm - N/A   Clear
11:53 PM 45.0 °F 43.0 °F 93% 30.01 in 10.0 mi Calm Calm - N/A   Overcast